Waarnemingen

Advertentie
Mijn weer
Semmerzake, België (6428): temperatuur & dauwpunt: 12.10.2018 03:00:00 - 18.10.2018 03:00:00 (CEST)Semmerzake, België (6428): windsnelheid & windstoten: 12.10.2018 03:00:00 - 18.10.2018 03:00:00 (CEST)Semmerzake, België (6428): windrichting: 12.10.2018 03:00:00 - 18.10.2018 03:00:00 (CEST)Semmerzake, België (6428): luchtdruk: 12.10.2018 03:00:00 - 18.10.2018 03:00:00 (CEST)Semmerzake, België (6428): zicht: 12.10.2018 03:00:00 - 18.10.2018 03:00:00 (CEST)
Datum & Tijd tt [°C] td [°C] ff [km/u] ff [kn] fx [km/u] fx [kn] dd ppp [hPa] vv [km]
18.10.2018 03:00:00 10,7 10,1 4 2 7 4 N 1023,2 3,9
18.10.2018 02:00:00 10,8 10,3 4 2 - - N 1023,1 4,8
18.10.2018 01:00:00 10,7 10,1 4 2 7 4 N 1023,0 6
18.10.2018 00:00:00 11,1 10,4 4 2 4 2 N 1022,8 8
17.10.2018 23:00:00 11,1 10,1 4 2 - - N 1022,6 7
17.10.2018 22:00:00 12,1 10,2 4 2 7 4 N 1022,1 14
17.10.2018 21:00:00 13,0 10,3 7 4 11 6 N 1021,5 20
17.10.2018 20:00:00 14,3 10,6 7 4 - - N 1021,0 20
17.10.2018 19:00:00 15,4 11,1 11 6 14 8 N 1020,3 20
17.10.2018 18:00:00 16,6 12,1 11 6 18 10 N 1019,8 19
17.10.2018 17:00:00 18,5 12,0 7 4 - - NW 1019,7 19
17.10.2018 16:00:00 18,6 12,3 7 4 11 6 N 1019,7 20
17.10.2018 15:00:00 18,1 12,3 4 2 11 6 N 1019,6 20
17.10.2018 14:00:00 18,4 12,6 4 2 - - N 1019,8 14
17.10.2018 13:00:00 17,2 12,8 4 2 11 6 N 1020,0 13
17.10.2018 12:00:00 17,0 13,8 4 2 7 4 N 1020,2 8
17.10.2018 11:00:00 13,8 12,8 4 2 - - N 1020,1 3,6
17.10.2018 10:00:00 12,8 12,3 4 2 7 4 N 1020,0 2,8
17.10.2018 09:00:00 11,1 11,1 4 2 7 4 N 1019,7 1,5
17.10.2018 08:00:00 10,8 10,7 4 2 - - N 1019,5 1,5
17.10.2018 07:00:00 11,3 11,0 4 2 11 6 N 1019,2 1,0
17.10.2018 06:00:00 12,0 11,6 7 4 11 6 ZW 1019,0 2,2
17.10.2018 05:00:00 11,8 11,5 4 2 - - N 1018,7 2,2
17.10.2018 04:00:00 11,9 11,6 4 2 4 2 N 1018,8 2,2
17.10.2018 03:00:00 12,5 11,9 4 2 7 4 N 1018,7 3,5
17.10.2018 02:00:00 12,8 11,8 4 2 - - N 1018,7 4,0
17.10.2018 01:00:00 13,8 11,4 4 2 18 10 N 1018,8 8
17.10.2018 00:00:00 15,6 10,6 7 4 14 8 Z 1018,3 17
16.10.2018 23:00:00 15,8 10,6 7 4 - - Z 1018,3 20
16.10.2018 22:00:00 17,1 10,8 11 6 14 8 Z 1018,3 20
16.10.2018 21:00:00 18,7 10,8 7 4 14 8 ZZO 1018,1 20
16.10.2018 20:00:00 18,4 11,1 7 4 - - N 1018,2 20
16.10.2018 19:00:00 20,0 10,9 4 2 11 6 N 1017,8 20
16.10.2018 18:00:00 22,8 10,2 7 4 11 6 ZZW 1017,6 20
16.10.2018 17:00:00 23,5 10,7 4 2 - - N 1017,5 20
16.10.2018 16:00:00 23,7 9,1 4 2 14 8 N 1018,0 19
16.10.2018 15:00:00 23,9 8,5 4 2 11 6 N 1018,0 20
16.10.2018 14:00:00 23,8 9,0 4 2 - - N 1018,2 20
16.10.2018 13:00:00 23,4 10,2 4 2 11 6 N 1018,2 20
16.10.2018 12:00:00 21,9 11,1 4 2 11 6 N 1018,2 20
16.10.2018 11:00:00 19,2 10,6 4 2 - - N 1018,2 20
16.10.2018 10:00:00 16,3 10,4 4 2 7 4 N 1018,1 20
16.10.2018 09:00:00 14,3 8,8 4 2 11 6 N 1017,8 20
16.10.2018 08:00:00 14,1 8,6 4 2 - - N 1017,3 20
16.10.2018 07:00:00 13,8 8,9 7 4 11 6 ZZO 1017,0 20
16.10.2018 06:00:00 14,9 8,8 7 4 7 4 ZZO 1016,7 20
16.10.2018 05:00:00 14,6 9,1 7 4 - - ZZO 1016,5 20
16.10.2018 04:00:00 14,1 9,6 7 4 11 6 ZZO 1016,3 20
16.10.2018 03:00:00 11,5 10,6 4 2 7 4 N 1016,7 5
16.10.2018 02:00:00 11,8 11,2 4 2 - - N 1016,2 4,1
16.10.2018 01:00:00 12,4 11,7 0 0 4 2 N 1015,7 4,9
16.10.2018 00:00:00 13,7 12,3 4 2 4 2 N 1015,5 9
15.10.2018 23:00:00 15,1 12,4 4 2 - - N 1015,2 15
15.10.2018 22:00:00 16,2 12,8 7 4 7 4 ONO 1014,7 1,4
15.10.2018 21:00:00 16,3 12,5 4 2 14 8 N 1014,6 9
15.10.2018 20:00:00 18,2 11,8 7 4 - - ZZO 1014,2 20
15.10.2018 19:00:00 20,6 11,5 4 2 14 8 N 1013,6 20
15.10.2018 18:00:00 22,8 10,8 11 6 22 12 ZZW 1012,7 20
15.10.2018 17:00:00 23,5 10,9 14 8 - - ZZW 1012,2 20
15.10.2018 16:00:00 23,5 11,4 14 8 32 18 ZZW 1011,8 20
15.10.2018 15:00:00 23,2 11,8 18 10 32 18 ZZW 1011,7 20
15.10.2018 14:00:00 21,9 11,8 18 10 - - ZW 1011,6 20
15.10.2018 13:00:00 21,7 11,6 22 12 36 19 Z 1011,7 20
15.10.2018 12:00:00 21,1 11,2 18 10 32 18 ZZW 1011,3 20
15.10.2018 11:00:00 19,8 11,1 14 8 - - Z 1011,0 20
15.10.2018 10:00:00 18,6 11,0 11 6 22 12 Z 1010,3 20
15.10.2018 09:00:00 16,5 10,9 11 6 22 12 Z 1009,7 20
15.10.2018 08:00:00 16,1 10,3 14 8 - - Z 1009,0 20
15.10.2018 07:00:00 15,6 10,0 11 6 18 10 Z 1008,7 20
15.10.2018 06:00:00 16,1 9,9 11 6 22 12 Z 1008,3 20
15.10.2018 05:00:00 16,1 9,9 11 6 - - ZZO 1008,2 20
15.10.2018 04:00:00 16,3 10,1 11 6 22 12 ZZO 1008,3 20
15.10.2018 03:00:00 16,8 10,3 14 8 22 12 ZZO 1008,1 20
15.10.2018 02:00:00 17,2 10,4 11 6 - - ZZO 1008,0 20
15.10.2018 01:00:00 17,2 10,6 7 4 18 10 ZZO 1007,7 20
15.10.2018 00:00:00 18,1 10,7 11 6 14 8 ZZO 1007,6 20
14.10.2018 23:00:00 17,1 11,1 4 2 - - N 1007,7 20
14.10.2018 22:00:00 17,8 11,2 7 4 14 8 ZO 1007,3 20
14.10.2018 21:00:00 17,3 11,5 7 4 11 6 N 1007,1 20
14.10.2018 20:00:00 19,0 11,7 7 4 - - ZZO 1006,8 20
14.10.2018 19:00:00 20,6 12,0 11 6 14 8 Z 1006,6 20
14.10.2018 18:00:00 22,3 12,7 7 4 18 10 Z 1006,5 20
14.10.2018 17:00:00 22,1 12,2 14 8 - - Z 1006,2 20
14.10.2018 16:00:00 22,6 12,1 18 10 36 19 Z 1006,2 20
14.10.2018 15:00:00 23,0 12,7 22 12 36 19 Z 1006,1 20
14.10.2018 14:00:00 22,2 12,6 22 12 - - Z 1006,3 20
14.10.2018 13:00:00 21,2 12,3 22 12 40 21 Z 1006,8 20
14.10.2018 12:00:00 20,1 11,9 25 14 40 21 Z 1006,8 20
14.10.2018 11:00:00 18,6 12,2 18 10 - - Z 1007,5 20
14.10.2018 10:00:00 17,0 12,0 14 8 25 14 Z 1007,7 20
14.10.2018 09:00:00 15,5 11,4 14 8 25 14 ZZO 1007,7 20
14.10.2018 08:00:00 15,8 11,5 14 8 - - ZZO 1007,7 20
14.10.2018 07:00:00 16,2 11,9 11 6 18 10 ZZO 1008,1 20
14.10.2018 06:00:00 15,7 12,4 4 2 18 10 N 1008,7 20
14.10.2018 05:00:00 16,6 12,7 11 6 - - Z 1009,2 20
14.10.2018 04:00:00 17,0 12,9 11 6 18 10 ZZO 1009,6 20
14.10.2018 03:00:00 17,2 13,4 11 6 18 10 ZO 1010,2 20
14.10.2018 02:00:00 17,7 13,6 14 8 - - ZZO 1010,8 20
14.10.2018 01:00:00 17,6 13,7 7 4 18 10 ZZO 1011,7 20
14.10.2018 00:00:00 17,5 13,7 11 6 14 8 ZZO 1012,2 20
13.10.2018 23:00:00 18,9 14,1 11 6 - - Z 1012,3 20
13.10.2018 22:00:00 19,6 14,3 11 6 18 10 Z 1012,7 20
13.10.2018 21:00:00 19,9 14,5 7 4 14 8 ZZO 1012,8 20
13.10.2018 20:00:00 20,3 14,9 7 4 - - ZZO 1013,0 20
13.10.2018 19:00:00 21,3 15,5 11 6 18 10 ZZO 1013,2 20
13.10.2018 18:00:00 22,5 15,5 14 8 36 19 Z 1013,3 20
13.10.2018 17:00:00 24,1 15,7 22 12 - - Z 1013,7 20
13.10.2018 16:00:00 24,7 16,4 18 10 32 18 Z 1014,2 20
13.10.2018 15:00:00 24,2 16,3 22 12 32 18 Z 1015,0 20
13.10.2018 14:00:00 23,7 16,5 14 8 - - Z 1015,8 20
13.10.2018 13:00:00 23,0 16,6 18 10 29 16 Z 1016,7 20
13.10.2018 12:00:00 21,1 15,7 18 10 29 16 Z 1017,2 20
13.10.2018 11:00:00 19,7 15,2 18 10 - - Z 1017,7 20
13.10.2018 10:00:00 18,0 14,3 18 10 29 16 Z 1017,7 20
13.10.2018 09:00:00 17,0 14,1 11 6 18 10 ZZO 1017,5 20
13.10.2018 08:00:00 16,8 14,0 11 6 - - ZZO 1017,6 20
13.10.2018 07:00:00 16,7 14,0 14 8 22 12 ZZO 1017,7 20
13.10.2018 06:00:00 16,7 14,1 11 6 22 12 ZZO 1018,0 20
13.10.2018 05:00:00 17,5 14,4 11 6 - - ZZO 1018,2 20
13.10.2018 04:00:00 17,7 14,5 11 6 25 14 ZZO 1018,3 20
13.10.2018 03:00:00 18,2 14,6 14 8 22 12 Z 1018,5 20
13.10.2018 02:00:00 19,0 14,8 14 8 - - Z 1018,0 20
13.10.2018 01:00:00 19,0 15,0 11 6 22 12 Z 1018,2 20
13.10.2018 00:00:00 19,2 15,2 11 6 18 10 Z 1018,3 20
12.10.2018 23:00:00 19,5 15,3 11 6 - - Z 1018,7 20
12.10.2018 22:00:00 19,7 15,3 14 8 29 16 Z 1018,5 20
12.10.2018 21:00:00 20,4 15,5 18 10 25 14 Z 1018,1 20
12.10.2018 20:00:00 20,5 15,6 14 8 - - Z 1018,0 20
12.10.2018 19:00:00 20,8 15,8 14 8 25 14 Z 1017,5 20
12.10.2018 18:00:00 21,6 16,3 14 8 36 19 Z 1017,3 20
12.10.2018 17:00:00 21,8 16,7 18 10 - - Z 1017,3 20
12.10.2018 16:00:00 21,3 16,1 25 14 36 19 Z 1017,2 20
12.10.2018 15:00:00 21,6 14,9 18 10 29 16 Z 1017,3 20
12.10.2018 14:00:00 20,6 15,1 18 10 - - Z 1017,6 20
12.10.2018 13:00:00 19,1 14,5 22 12 36 19 Z 1017,7 20
12.10.2018 12:00:00 18,2 14,6 22 12 32 18 Z 1017,5 20
12.10.2018 11:00:00 17,1 14,7 22 12 - - Z 1017,3 20
12.10.2018 10:00:00 16,0 14,3 14 8 29 16 Z 1017,2 20
12.10.2018 09:00:00 14,6 13,2 18 10 25 14 Z 1016,7 20
12.10.2018 08:00:00 13,5 12,6 11 6 - - Z 1016,2 18
12.10.2018 07:00:00 13,6 12,4 14 8 29 16 Z 1015,5 20
12.10.2018 06:00:00 14,0 12,8 18 10 29 16 Z 1015,0 20
12.10.2018 05:00:00 14,0 12,6 14 8 - - Z 1014,5 20
12.10.2018 04:00:00 15,0 12,7 18 10 25 14 ZZW 1013,8 20
12.10.2018 03:00:00 15,0 12,6 18 10 32 18 ZZW 1013,7 20

tt = temperatuur
td = dauwpunt
ff = windsnelheid
fx = windstoten
dd = windrichting
ppp = luchtdruk
vv = zicht

Weerstations in de omgeving